Location: Glens Falls
(43.3090°N, 73.6440°W)
Time: 20:50:58
(UTC-04:00)

Daily predictions for brighter satellites

Satellite Brightness Start Highest point End
(mag) Time Altitude Azimuth Time Altitude Azimuth Time Altitude Azimuth
Cosmos 1862 Rocket 4.4 20:49:44 10° NNW 20:54:09 56° W 20:58:32 10° S
Cosmos 1939 Rocket 2.9 20:50:22 10° SSE 20:54:30 75° ENE 20:58:38 10° N
Spot 2 Rocket 4.3 20:52:27 10° S 20:57:26 54° W 21:02:28 10° NNW
USA 215 3.9 20:52:02 10° ESE 20:58:19 50° NNE 21:04:37 10° NW
Cosmos 1408 3.8 20:55:26 10° SE 20:58:28 24° E 21:01:33 10° NE
ISS -3.9 20:57:42 10° SW 21:00:57 83° SE 21:04:12 10° ENE
Resurs 01 Rocket 3.3 21:00:37 10° SSW 21:04:39 35° W 21:08:45 10° NNW
Tiangong 2 2.8 21:03:35 10° W 21:06:12 23° SSW 21:08:49 10° SSE
NOSS 3-2 (C) 4.0 21:01:19 10° SW 21:07:20 68° NW 21:14:00 10° NNE
Cosmos 2279 Rocket 4.3 21:05:26 10° N 21:11:30 49° ENE 21:17:29 10° SSE
Meteor 2-3 Rocket 3.9 21:06:14 10° SSW 21:11:57 80° W 21:17:39 10° N
CZ-4B DEB 2.6 21:09:58 10° SSE 21:12:52 62° ENE 21:15:46 10° N
Okean 1-7 3.1 21:10:09 10° N 21:14:33 61° E 21:18:53 10° SSE
Cosmos 1825 2.8 21:11:49 10° SSE 21:15:17 36° E 21:18:47 10° NNE
CENTAUR R/B 2.6 21:12:22 10° SSW 21:18:11 56° ESE 21:24:48 10° NE
Cosmos 1782 2.9 21:16:21 10° N 21:20:19 57° E 21:24:10 10° SSE
Cosmos 2142 Rocket 4.5 21:14:36 10° N 21:20:47 84° E 21:26:56 10° S
Cosmos 2344 4.0 21:14:59 10° S 21:22:00 41° ESE 21:29:34 10° NE
SPOT 5 3.9 21:17:37 11° SE 21:22:09 36° ENE 21:26:56 10° N
Shenzhou-11 Module 4.5 21:20:34 10° WSW 21:22:11 14° SSW 21:23:49 10° S
Envisat 4.1 21:19:45 10° S 21:24:34 44° W 21:29:26 10° NNW
MetOp-A 4.4 21:19:56 10° SSE 21:25:05 55° ENE 21:30:19 10° N
Cosmos 372 Rocket 4.1 21:20:27 10° S 21:25:23 50° ESE 21:30:20 10° NNE
H-2A ROCKET BODY 3.8 21:29:14 10° S 21:31:04 12° SSE 21:32:06 12° SSE
Cosmos 1703 Rocket 4.1 21:27:09 10° NNW 21:31:29 58° W 21:35:47 10° S
SPOT 1/Viking Rocket 4.4 21:29:53 14° SE 21:33:39 34° ENE 21:38:20 10° N
DNEPR-1 R/B 3.7 21:29:14 10° SSW 21:34:26 70° ESE 21:38:55 10° NE
Cosmos 1943 Rocket 2.1 21:29:04 10° S 21:34:35 65° ESE 21:40:05 10° NNE
Cosmos 1269 Rocket 4.0 21:31:33 10° NNW 21:36:51 72° ENE 21:41:09 16° SSE
deb Kosmos-1763 4.1 21:36:39 10° NNW 21:40:26 83° ENE 21:43:07 18° SSE
Cosmos 1125 Rocket 3.4 21:35:17 10° SSW 21:40:32 83° ESE 21:45:47 10° NNE
Cosmos 1862 3.7 21:38:56 15° SSE 21:41:55 44° E 21:45:43 10° NNE
Helios 1B rocket 3.1 21:37:55 10° N 21:41:58 57° WNW 21:45:58 10° SSW
Cosmos 1733 Rocket 3.7 21:40:35 18° SSE 21:43:17 36° E 21:47:15 10° NNE
Cosmos 1340 2.6 21:45:11 10° N 21:49:00 81° E 21:51:33 20° SSE
NOAA 11 4.3 21:44:21 11° S 21:49:42 78° WSW 21:55:14 10° NNW
Cosmos 2263 4.4 21:44:29 10° SSW 21:50:16 77° WNW 21:56:01 10° NNE
Cosmos 1869 Rocket 4.4 21:47:01 10° SSW 21:51:14 50° WNW 21:55:30 10° N
Lacrosse 4 Rocket 1.5 21:47:17 10° NNW 21:51:49 83° ENE 21:54:34 23° SSE
Cosmos 2369 Rocket 3.3 21:54:43 10° SW 22:00:10 47° WNW 22:05:41 10° NNE
ATLAS CENTAUR R/B 3.0 22:02:49 16° E 22:02:49 16° E 22:04:17 10° ENE
SL-08 RB Rocket 3.7 22:00:57 22° SSE 22:03:57 79° ENE 22:08:38 10° N
Cosmos 158 Rocket 4.4 22:01:53 10° NNW 22:06:39 53° WSW 22:10:14 17° S
Cosmos 1606 3.9 22:03:30 10° NNW 22:07:04 40° W 22:10:13 12° SSW
Cosmos 494 Rocket 4.4 22:02:04 10° N 22:07:09 49° ENE 22:09:45 26° SE
Cosmos 1833 4.3 22:02:14 10° NNW 22:08:03 83° WSW 22:11:43 23° SSE
Cosmos 1867 3.9 22:02:51 10° NNW 22:08:13 54° NE 22:11:15 25° ESE
H-2A R/B 2.1 22:11:05 24° SSE 22:14:25 80° ENE 22:19:44 10° N
COSMOS 2455 4.5 22:10:36 10° WSW 22:16:07 37° NW 22:21:40 10° NNE
CARTOSAT-1 4.3 22:16:12 29° ESE 22:17:38 38° ENE 22:21:39 10° N
Cosmos 2297 Rocket 4.2 22:14:20 10° N 22:17:53 17° NE 22:21:26 10° E
ATLAS 5 CENTAUR R/B 2.8 22:13:00 10° NW 22:18:54 59° WSW 22:22:52 24° S
GPS 2-04 Rocket1 4.4 22:16:54 10° WSW 22:18:45 16° SSW 22:18:45 16° SSW
Cosmos 1674 Rocket 3.5 22:15:09 10° N 22:19:29 71° E 22:21:11 35° SSE
Cosmos 1378 Rocket 4.2 22:15:32 10° N 22:19:44 39° ENE 22:20:59 32° ESE
Lacrosse 5 rocket 3.2 22:18:07 10° W 22:21:16 28° NNW 22:24:32 10° NNE
Landsat 7 3.9 22:21:55 33° SE 22:23:57 66° ENE 22:28:41 10° N
ERS-1 Rocket 4.4 22:23:37 10° SSW 22:28:04 33° W 22:32:38 10° NNW
Cosmos 1656 Rocket 3.5 22:25:42 10° SSW 22:31:09 84° ESE 22:36:43 10° NNE
BREEZE-M DEB (TANK) 3.6 22:27:35 10° WNW 22:31:12 85° SSW 22:40:24 20° ESE
ARGOS 3.9 22:28:53 18° SSW 22:32:43 48° W 22:37:55 10° NNW
Meteor 1-27 Rocket 4.3 22:27:53 10° NNW 22:33:29 54° W 22:37:24 19° SSW
H-2A R/B 2.8 22:33:43 31° E 22:34:27 34° ENE 22:38:12 10° N
Okean 3 3.5 22:30:30 10° N 22:34:39 63° E 22:35:36 48° SE
Nadezhda 4 Rocket 4.1 22:30:14 15° SSW 22:35:34 78° W 22:41:45 10° N
Cosmos 1092 Rocket 3.9 22:31:56 25° S 22:35:42 76° E 22:41:50 10° N
IGS 5A 3.6 22:36:31 46° ESE 22:37:24 58° ENE 22:41:30 10° N
ISS -1.4 22:35:00 10° WNW 22:37:44 24° NNW 22:40:28 10° NE
Terra 1.9 22:37:34 41° SE 22:39:06 65° ENE 22:43:50 10° N
USA 215 3.5 22:37:58 30° SSE 22:41:15 59° SW 22:47:44 10° NW
Cosmos 1437 3.4 22:53:05 10° NNW 22:56:09 48° W 22:56:09 48° W
Cosmos 1908 Rocket 3.6 22:55:35 47° SSW 22:56:52 82° W 23:01:20 10° N
SPOT 5 4.5 22:56:52 17° SSW 23:00:10 32° W 23:04:53 10° NNW
Meteor 1-25 Rocket 4.3 22:59:05 44° SSE 23:00:47 62° E 23:06:33 10° NNE
ARGOS Delta rocket 4.3 22:56:42 10° NNE 23:00:40 39° E 23:00:40 39° E
CZ-2C R/B 4.2 23:01:01 10° NE 23:04:11 19° E 23:04:11 19° E
Milstar 3 3.9 22:57:54 10° WSW 23:05:32 28° S 23:05:32 28° S
Cosmos 1633 4.2 23:07:12 24° NE 23:07:12 24° NE 23:09:09 10° NNE
Cosmos 2251 Rocket 3.7 23:01:02 10° NNW 23:06:13 63° WSW 23:07:41 44° SSW
DMSP B5D2-2 4.5 23:02:57 10° N 23:08:05 60° WNW 23:11:06 25° SW
Cosmos 2227 Rocket 2.9 23:02:55 10° NNW 23:08:18 42° ENE 23:10:00 33° E
Okean 2 Rocket 3.3 23:08:46 52° E 23:08:46 52° E 23:12:59 10° NNE
CENTAUR R/B 4.2 23:03:30 10° WSW 23:09:12 35° NW 23:15:39 10° NNE
DELTA 2 DEB (DPAF) 4.4 23:14:24 53° E 23:14:42 54° ENE 23:19:04 10° N
Cosmos 2219 3.4 23:09:57 10° NNW 23:15:39 65° WSW 23:17:12 46° S
Spot 4 3.7 23:17:07 64° SE 23:17:48 78° ENE 23:22:38 10° N
deb Chang Zheng 4 3.4 23:15:12 10° NNE 23:19:39 78° ESE 23:19:47 77° SE
CZ-4 R/B 3.6 23:15:26 10° NNE 23:20:06 78° ESE 23:20:28 72° SSE
Meteor 1-14 Rocket 4.4 23:17:48 35° SSW 23:20:21 72° WNW 23:26:10 10° N
Cosmos 1812 2.9 23:16:49 10° NNW 23:20:33 64° W 23:20:33 64° W
Cosmos 1782 Rocket 3.6 23:23:54 65° SW 23:24:22 71° W 23:28:45 10° N
Lacrosse 4 Rocket 4.1 23:29:01 10° W 23:29:48 10° WSW 23:30:35 10° WSW
GEOS 3 Rocket 3.8 23:30:20 51° SSW 23:31:00 55° WSW 23:36:08 10° NW
Cosmos 2369 4.1 23:33:38 45° ESE 23:33:38 45° ESE 23:38:54 10° NE
Cosmos 1980 Rocket 4.3 23:35:37 13° E 23:35:37 13° E 23:37:00 10° ENE
Meteor 1-11 Rocket 4.2 23:38:32 44° ESE 23:39:00 45° E 23:44:39 10° NNE
Meteor 2-4 Rocket 4.3 23:34:38 10° N 23:39:39 39° ENE 23:40:11 38° E
Gbstr 26 Del rocket 3.1 23:35:38 10° NW 23:39:33 62° N 23:39:33 62° N
ATLAS CENTAUR R/B 2.4 23:39:00 31° W 23:40:10 40° NW 23:43:48 10° NNE
Cosmos 405 Rocket 3.8 23:38:59 10° NNW 23:41:56 37° WNW 23:41:56 37° WNW
Cosmos 1655 Rocket 4.1 23:42:10 44° SSW 23:44:14 71° W 23:50:29 10° N
Cosmos 1975 Rocket 3.8 23:40:54 10° NNW 23:45:10 45° W 23:45:23 44° WSW
Cosmos 407 Rocket 4.5 23:40:55 10° N 23:45:51 36° ENE 23:46:45 34° E
CZ-4C R/B 3.6 23:46:58 70° NW 23:46:58 70° NW 23:50:45 10° NNW
Okean 1 4.0 23:47:02 10° NNW 23:50:24 49° WNW 23:50:24 49° WNW
ALOS 2 3.4 23:53:43 42° ENE 23:53:43 42° ENE 23:57:34 10° N
H-2A R/B 4.5 23:51:42 10° WSW 23:54:23 14° W 23:57:03 10° WNW
BREEZE M DEB (TANK) 4.3 23:51:01 10° W 23:56:08 35° NNW 23:57:10 27° NNE
